Location: Newark
(38.3460°N, 140.9975°E)
Time: 23:23:25
(UTC+00:00)

ISS - Visible Passes

Search period start: 21 November 2019 00:00
Search period end: 01 December 2019 00:00
Orbit: 412 x 421 km, 51.6° (Epoch: 22 November)

Date Brightness Start Highest point End Pass type
(mag) Time Alt. Az. Time Alt. Az. Time Alt. Az.
21 Nov -3.6 08:55:17 10° SW 08:58:27 56° SE 08:58:27 56° SE visible
22 Nov -2.7 08:07:18 10° SSW 08:10:15 30° SE 08:12:21 16° E visible
22 Nov -1.0 09:43:59 10° W 09:45:16 19° WNW 09:45:16 19° WNW visible
23 Nov -3.1 08:55:14 10° WSW 08:58:29 47° NW 08:59:04 41° N visible
24 Nov -3.8 08:06:42 10° SW 08:10:03 84° NW 08:12:47 15° NE visible
24 Nov -0.7 09:45:04 10° WNW 09:45:42 12° NW 09:45:42 12° NW visible
25 Nov -1.8 08:55:56 10° WNW 08:58:35 21° NNW 08:59:20 20° N visible
26 Nov -2.3 08:06:59 10° W 08:10:00 31° NNW 08:12:54 11° NNE visible
27 Nov -1.2 08:57:17 10° NW 08:58:51 13° NNW 08:59:19 12° N visible
28 Nov -1.5 08:07:56 10° WNW 08:10:08 16° NNW 08:12:21 10° NNE visible
30 Nov -1.2 08:09:38 10° NNW 08:10:25 11° NNW 08:11:12 10° N visible
